TimeEST,TemperatureF,Dew PointF,Humidity,Sea Level PressureIn,VisibilityMPH,Wind Direction,Wind SpeedMPH,Gust SpeedMPH,PrecipitationIn,Events,Conditions,WindDirDegrees,DateUTC
12:53 AM,36.0,26.1,67,30.44,10.0,NNE,4.6,-,N/A,,Clear,30,2013-11-14 05:53:00
1:53 AM,35.1,26.1,70,30.42,10.0,NNE,5.8,-,N/A,,Clear,30,2013-11-14 06:53:00
2:53 AM,34.0,26.1,73,30.41,10.0,NNE,5.8,-,N/A,,Clear,30,2013-11-14 07:53:00
3:53 AM,36.0,26.1,67,30.41,10.0,NNE,6.9,-,N/A,,Clear,20,2013-11-14 08:53:00
4:53 AM,36.0,26.1,67,30.41,10.0,NNE,3.5,-,N/A,,Clear,20,2013-11-14 09:53:00
5:53 AM,35.1,26.1,70,30.41,10.0,Calm,Calm,-,N/A,,Clear,0,2013-11-14 10:53:00
6:53 AM,33.1,28.0,82,30.42,10.0,Calm,Calm,-,N/A,,Clear,0,2013-11-14 11:53:00
7:53 AM,34.0,28.9,82,30.44,10.0,Calm,Calm,-,N/A,,Clear,0,2013-11-14 12:53:00
8:53 AM,39.0,28.9,67,30.45,10.0,WSW,3.5,-,N/A,,Clear,250,2013-11-14 13:53:00
9:53 AM,48.0,32.0,54,30.45,10.0,Calm,Calm,-,N/A,,Clear,0,2013-11-14 14:53:00
10:53 AM,55.0,37.0,51,30.44,10.0,ENE,5.8,-,N/A,,Clear,70,2013-11-14 15:53:00
11:53 AM,60.1,39.9,47,30.40,10.0,Calm,Calm,-,N/A,,Clear,0,2013-11-14 16:53:00
12:53 PM,62.1,42.1,48,30.37,10.0,NE,6.9,-,N/A,,Clear,40,2013-11-14 17:53:00
1:53 PM,64.9,44.1,47,30.33,10.0,Variable,4.6,-,N/A,,Clear,0,2013-11-14 18:53:00
2:53 PM,63.0,45.0,52,30.31,10.0,North,5.8,-,N/A,,Clear,360,2013-11-14 19:53:00
3:53 PM,64.0,46.0,52,30.29,10.0,NNE,5.8,-,N/A,,Clear,30,2013-11-14 20:53:00
4:53 PM,61.0,48.9,64,30.27,10.0,North,4.6,-,N/A,,Clear,10,2013-11-14 21:53:00
5:53 PM,55.9,50.0,80,30.27,10.0,NNE,3.5,-,N/A,,Clear,20,2013-11-14 22:53:00
6:53 PM,53.1,50.0,89,30.28,10.0,NNE,6.9,-,N/A,,Clear,20,2013-11-14 23:53:00
7:53 PM,53.1,48.9,86,30.27,10.0,NNE,6.9,-,N/A,,Clear,30,2013-11-15 00:53:00
8:53 PM,54.0,48.9,83,30.27,10.0,NNE,4.6,-,N/A,,Clear,20,2013-11-15 01:53:00
9:53 PM,54.0,48.9,83,30.27,10.0,NNE,4.6,-,N/A,,Clear,30,2013-11-15 02:53:00
10:53 PM,55.0,48.9,80,30.26,10.0,NE,3.5,-,N/A,,Clear,40,2013-11-15 03:53:00
11:53 PM,55.9,48.9,77,30.25,10.0,NE,4.6,-,N/A,,Mostly Cloudy,50,2013-11-15 04:53:00